STARLINK-35949

Last updated on Wed Dec 31 2025 00:02:06 GMT+0000 (Coordinated Universal Time)

1 66630U 25271P 25364.51054943 .00062927 00000+0 15717-2 0 9997 2 66630 53.1605 102.7832 0001566 53.9745 306.1405 15.39590020 6950
UTC large
Height (km)
Speed (km/s)
/
Latitude / Longitude
Inclination (degrees)
Orbital Period (minutes)
Azimuth
Elevation
Range (km)
Doppler Factor

Next 0 passes for location: London (51.5072 / 0.1276)

Sorry there are no passes over London.